This demonstration page uses our WeatherBlox Daily Observations layout. Learn more.

Left ArrowRight Arrow

41.86663, -103.66717

Hourly Observations for March 7, 2020

Temp ( °F °C ) Dew Point ( °F °C ) Humidity (%) Winds ( mph kmh ) Pressure ( in mb ) Visibility ( mi km ) Precip ( " mm )
12:53 am 00:53 Clear 33 0.6 18 -7.8 54 54 WSW 3 6 29.98 1015 10 16 N/A
1:53 am 01:53 Clear 31 -0.6 19 -7.2 61 61 NNE 3 6 29.97 1015 10 16 N/A
2:53 am 02:53 Clear 28 -2.2 20 -6.7 72 72 NNW 6 9 29.96 1015 10 16 N/A
3:53 am 03:53 Clear 30 -1.1 19 -7.2 64 64 NW 6 9 29.95 1014 10 16 N/A
4:53 am 04:53 Clear 27 -2.8 20 -6.7 75 75 NNW 5 7 29.95 1014 10 16 N/A
5:53 am 05:53 Clear 27 -2.8 19 -7.2 72 72 WNW 3 6 29.98 1015 10 16 N/A
6:53 am 06:53 Sunny 27 -2.8 19 -7.2 72 72 NNW 6 9 30.00 1016 10 16 N/A
7:53 am 07:53 Sunny 33 0.6 23 -5 66 66 NW 3 6 30.01 1016 10 16 N/A
8:53 am 08:53 Sunny 48 8.9 26 -3.3 42 42 NW 3 6 29.96 1015 10 16 N/A
9:53 am 09:53 Sunny 58 14.4 26 -3.3 29 29 N N/A 29.92 1013 10 16 N/A
10:53 am 10:53 Sunny 69 20.6 26 -3.3 20 20 W 8 13 29.88 1012 10 16 N/A
11:53 am 11:53 Sunny 73 22.8 24 -4.4 16 16 WNW 20 31 29.84 1010 10 16 N/A
12:53 pm 12:53 Sunny 73 22.8 20 -6.7 13 13 W 15 24 29.81 1010 10 16 N/A
1:53 pm 13:53 Sunny 73 22.8 22 -5.6 15 15 W 22 35 29.80 1009 10 16 N/A
2:53 pm 14:53 Sunny 72 22.2 21 -6.1 15 15 WNW 16 26 29.80 1009 10 16 N/A
3:53 pm 15:53 Sunny 72 22.2 22 -5.6 15 15 WNW 7 11 29.77 1008 10 16 N/A
4:53 pm 16:53 Sunny 70 21.1 22 -5.6 16 16 N N/A 29.75 1008 10 16 N/A
5:53 pm 17:53 Clear 57 13.9 22 -5.6 26 26 ENE 3 6 29.78 1009 10 16 N/A
6:53 pm 18:53 Clear 52 11.1 23 -5 32 32 N N/A 29.81 1009 10 16 N/A
7:53 pm 19:53 Clear 46 7.8 21 -6.1 37 37 ESE 5 7 29.81 1009 10 16 N/A
8:53 pm 20:53 Clear 45 7.2 23 -5 42 42 ENE 7 11 29.77 1008 10 16 N/A
9:53 pm 21:53 Clear 41 5 23 -5 49 49 N N/A 29.74 1007 10 16 N/A
10:53 pm 22:53 Clear 41 5 23 -5 49 49 N N/A 29.70 1006 10 16 N/A
11:53 pm 23:53 Clear 35 1.7 23 -5 61 61 N 6 9 29.70 1006 10 16 N/A

Powered by AerisWeather